Dennison, MN

9:15 PM CST on February 19, 2017 (GMT -0600)
Stanton

Weather History for KSYN - April, 2013

Change the Weather History Date:

Tuesday, April 30, 2013

  Actual Average (KLVN) Record (KLVN)
Temperature  
Mean Temperature 64 °F -  
Max Temperature 73 °F 64 °F 92 °F (1952)
Min Temperature 55 °F 40 °F 23 °F (1956)
Growing Degree Days 14 (Base 50)    
Moisture  
Dew Point 46 °F    
Average Humidity 52    
Maximum Humidity 77    
Minimum Humidity 31    
Precipitation  
Precipitation 0.00 in - - ()
Sea Level Pressure  
Sea Level Pressure 29.64 in    
Wind  
Wind Speed 12 mph (WSW)    
Max Wind Speed 23 mph    
Max Gust Speed 31 mph    
Visibility 10 miles    
Events Thunderstorm    
Averages and records for this station are not official NWS values.
T = Trace of Precipitation, MM = Missing Value Source: NWS Daily Summary

Daily Weather History Graph

Daily Weather History Graph

Search for Another Location

Airport or City:

Trip Planner

Search our weather history database for the weather conditions in past years. The results will help you decide how hot, cold, wet, or windy it might be!

Date:

Astronomy

Apr. 30, 2013 Rise Set
Actual Time 6:03 AM CDT 8:15 PM CDT
Civil Twilight 5:31 AM CDT 8:47 PM CDT
Nautical Twilight 4:52 AM CDT 9:27 PM CDT
Astronomical Twilight 4:08 AM CDT 10:11 PM CDT
Moon 12:41 AM CDT (4/30) 10:30 AM CDT (4/30)
Length of Visible Light 15h 15m
Length of Day
14h 11m
Waning Gibbous, 70% of the Moon is Illuminated
Apr 30
Waning Gibbous
May 2
Last Quarter
May 9
New
May 17
First Quarter
May 24
Full

Hourly Weather History & Observations

Time (CDT) Temp. Dew Point Humidity Pressure Visibility Wind Dir Wind Speed Gust Speed Precip Events Conditions
12:13 AM 64.4 °F 54.5 °F 70% 29.54 in 10.0 mi SE 8.1 mph 16.1 mph N/A   Unknown
12:34 AM 64.4 °F 54.3 °F 70% 29.53 in 10.0 mi ESE 9.2 mph - N/A   Unknown
12:54 AM 64.4 °F 54.1 °F 69% 29.51 in 10.0 mi ESE 10.4 mph 16.1 mph N/A   Unknown
1:13 AM 64.4 °F 53.8 °F 68% 29.50 in 10.0 mi SE 11.5 mph 20.7 mph N/A   Unknown
1:34 AM 64.4 °F 53.6 °F 68% 29.49 in 10.0 mi ESE 15.0 mph 23.0 mph N/A   Unknown
1:54 AM 64.0 °F 53.6 °F 69% 29.49 in 10.0 mi SE 13.8 mph 19.6 mph N/A   Unknown
2:14 AM 63.5 °F 53.6 °F 70% 29.48 in 10.0 mi SE 15.0 mph 23.0 mph N/A   Unknown
2:33 AM 63.0 °F 53.6 °F 71% 29.48 in 10.0 mi SE 12.7 mph 18.4 mph N/A   Unknown
2:54 AM 62.6 °F 53.6 °F 72% 29.47 in 10.0 mi SE 11.5 mph 16.1 mph N/A   Unknown
3:14 AM 63.3 °F 54.0 °F 71% 29.46 in 10.0 mi SSE 10.4 mph 18.4 mph N/A   Unknown
3:33 AM 63.9 °F 54.5 °F 72% 29.46 in 10.0 mi SSE 11.5 mph 17.3 mph N/A Thunderstorm Unknown
3:54 AM 63.5 °F 54.7 °F 73% 29.46 in 10.0 mi SSE 10.4 mph - N/A   Unknown
4:13 AM 63.5 °F 55.0 °F 74% 29.45 in 10.0 mi SSE 11.5 mph - N/A   Unknown
4:34 AM 63.5 °F 55.4 °F 75% 29.45 in 10.0 mi SSE 10.4 mph 18.4 mph N/A   Unknown
4:54 AM 63.5 °F 55.8 °F 76% 29.45 in 10.0 mi South 12.7 mph - N/A   Unknown
5:13 AM 63.3 °F 55.9 °F 77% 29.45 in 10.0 mi SSE 17.3 mph - N/A   Unknown
5:34 AM 63.7 °F 56.3 °F 77% 29.45 in 10.0 mi South 17.3 mph - N/A   Unknown
5:54 AM 63.7 °F 56.3 °F 77% 29.45 in 10.0 mi South 17.3 mph 24.2 mph N/A   Unknown
6:13 AM 64.4 °F 56.8 °F 76% 29.45 in 10.0 mi South 17.3 mph 24.2 mph N/A   Unknown
6:34 AM 65.5 °F 56.8 °F 74% 29.45 in 10.0 mi South 18.4 mph 24.2 mph N/A   Unknown
6:54 AM 65.5 °F 56.7 °F 73% 29.44 in 10.0 mi South 16.1 mph 24.2 mph N/A   Unknown
7:13 AM 66.2 °F 56.8 °F 72% 29.46 in 10.0 mi South 12.7 mph 19.6 mph N/A   Unknown
7:34 AM 66.6 °F 57.2 °F 72% 29.45 in 10.0 mi South 15.0 mph 21.9 mph N/A   Unknown
7:54 AM 68.0 °F 57.2 °F 68% 29.46 in 10.0 mi South 12.7 mph 18.4 mph N/A   Unknown
8:13 AM 69.4 °F 57.2 °F 65% 29.47 in 10.0 mi SSW 15.0 mph 21.9 mph N/A   Unknown
8:34 AM 71.1 °F 56.3 °F 60% 29.47 in 10.0 mi SSW 23.0 mph 29.9 mph N/A   Unknown
8:54 AM 72.5 °F 56.3 °F 57% 29.48 in 10.0 mi SSW 21.9 mph 31.1 mph N/A   Unknown
9:13 AM 72.9 °F 55.8 °F 55% 29.50 in 10.0 mi SW 21.9 mph 28.8 mph N/A   Unknown
9:34 AM 73.6 °F 54.9 °F 52% 29.50 in 10.0 mi WSW 17.3 mph 26.5 mph N/A   Unknown
9:53 AM 72.1 °F 54.7 °F 54% 29.53 in 10.0 mi WSW 16.1 mph 23.0 mph N/A   Unknown
10:13 AM 71.1 °F 52.3 °F 52% 29.54 in 10.0 mi West 18.4 mph 25.3 mph N/A   Unknown
10:34 AM 70.2 °F 50.0 °F 49% 29.55 in 10.0 mi West 16.1 mph 21.9 mph N/A   Unknown
10:53 AM 69.3 °F 48.4 °F 47% 29.58 in 10.0 mi West 18.4 mph - N/A   Unknown
11:14 AM 68.2 °F 47.5 °F 47% 29.58 in 10.0 mi West 19.6 mph - N/A   Unknown
11:34 AM 68.2 °F 47.1 °F 47% 29.60 in 10.0 mi West 18.4 mph 26.5 mph N/A   Unknown
11:53 AM 69.1 °F 47.5 °F 46% 29.62 in 10.0 mi West 17.3 mph 23.0 mph N/A   Unknown
12:14 PM 66.7 °F 46.8 °F 49% 29.63 in 10.0 mi West 18.4 mph 23.0 mph N/A   Unknown
12:34 PM 66.6 °F 46.8 °F 49% 29.64 in 10.0 mi WNW 20.7 mph 24.2 mph N/A   Unknown
12:53 PM 66.2 °F 45.7 °F 48% 29.66 in 10.0 mi WNW 17.3 mph - N/A   Unknown
1:14 PM 67.5 °F 43.7 °F 42% 29.66 in 10.0 mi WNW 16.1 mph 26.5 mph N/A   Unknown
1:34 PM 66.4 °F 43.3 °F 43% 29.65 in 10.0 mi WNW 9.2 mph - N/A   Unknown
1:53 PM 68.0 °F 44.6 °F 43% 29.69 in 10.0 mi WNW 9.2 mph 19.6 mph N/A   Unknown
2:14 PM 68.4 °F 43.7 °F 41% 29.68 in 10.0 mi NW 10.4 mph 17.3 mph N/A   Unknown
2:34 PM 70.5 °F 41.9 °F 35% 29.71 in 10.0 mi West 13.8 mph 20.7 mph N/A   Unknown
2:53 PM 69.4 °F 40.3 °F 35% 29.71 in 10.0 mi West 13.8 mph 18.4 mph N/A   Unknown
3:14 PM 69.8 °F 39.6 °F 33% 29.73 in 10.0 mi WNW 17.3 mph 21.9 mph N/A   Unknown
3:34 PM 70.0 °F 39.9 °F 33% 29.72 in 10.0 mi WNW 8.1 mph - N/A   Unknown
3:53 PM 69.1 °F 40.5 °F 35% 29.72 in 10.0 mi NW 8.1 mph - N/A   Unknown
4:14 PM 68.7 °F 37.8 °F 32% 29.74 in 10.0 mi West 9.2 mph 16.1 mph N/A   Unknown
4:34 PM 69.1 °F 41.9 °F 37% 29.77 in 10.0 mi West 15.0 mph - N/A   Unknown
4:53 PM 68.0 °F 40.6 °F 37% 29.78 in 10.0 mi WNW 10.4 mph - N/A   Unknown
5:14 PM 68.7 °F 40.5 °F 36% 29.79 in 10.0 mi West 10.4 mph - N/A   Unknown
5:33 PM 67.3 °F 39.7 °F 36% 29.80 in 10.0 mi West 10.4 mph 16.1 mph N/A   Unknown
5:54 PM 66.4 °F 39.0 °F 37% 29.81 in 10.0 mi WNW 12.7 mph - N/A   Unknown
6:13 PM 66.0 °F 36.0 °F 33% 29.81 in 10.0 mi West 9.2 mph - N/A   Unknown
6:33 PM 65.5 °F 35.8 °F 33% 29.82 in 10.0 mi West 6.9 mph - N/A   Unknown
6:53 PM 64.9 °F 39.0 °F 39% 29.81 in 10.0 mi NW 4.6 mph - N/A   Unknown
7:14 PM 64.4 °F 38.8 °F 39% 29.79 in 10.0 mi NNW 4.6 mph - N/A   Unknown
7:33 PM 64.4 °F 35.1 °F 34% 29.80 in 10.0 mi NW 4.6 mph - N/A   Unknown
7:54 PM 63.9 °F 34.3 °F 33% 29.82 in 10.0 mi WNW 4.6 mph - N/A   Unknown
8:14 PM 62.6 °F 32.2 °F 32% 29.81 in 10.0 mi NNW 10.4 mph - N/A   Unknown
8:33 PM 61.7 °F 34.0 °F 35% 29.82 in 10.0 mi NW 8.1 mph - N/A   Unknown
8:54 PM 61.0 °F 31.5 °F 33% 29.84 in 10.0 mi NW 8.1 mph - N/A   Unknown
9:13 PM 59.7 °F 32.5 °F 36% 29.86 in 10.0 mi NW 4.6 mph - N/A   Unknown
9:34 PM 60.8 °F 30.0 °F 31% 29.88 in 10.0 mi WNW 3.5 mph - N/A   Unknown
9:53 PM 60.1 °F 30.9 °F 33% 29.89 in 10.0 mi Calm Calm - N/A   Unknown
10:13 PM 59.0 °F 32.4 °F 37% 29.90 in 10.0 mi WNW 4.6 mph - N/A   Unknown
10:34 PM 57.6 °F 35.1 °F 43% 29.92 in 10.0 mi West 9.2 mph - N/A Thunderstorm Unknown
10:53 PM 56.8 °F 37.9 °F 49% 29.92 in 10.0 mi WNW 5.8 mph - N/A   Unknown
11:13 PM 56.5 °F 37.8 °F 50% 29.92 in 10.0 mi NW 5.8 mph - N/A   Unknown
11:34 PM 57.2 °F 36.3 °F 46% 29.95 in 10.0 mi West 3.5 mph - N/A   Unknown
11:54 PM 55.4 °F 40.1 °F 56% 29.95 in 10.0 mi WNW 4.6 mph - N/A   Unknown